RH
86 59 60 65 68 72 78 79 74 69 62 74 58 64 63 88 89 93 95 94 90 81 70 63 58 40 19 37 58 52 55 78 83 89 88 87 71 56 55 50 37 28 49
75 55 59 64 70 74 81 75 75 63 61 33 73 54 52 59 78 90 87 82 74 62 50 47 42 23 33 62 57 69 75 76 79 80 81 69 77 68 67 76 74 65 34
62 57 60 71 70 76 76 68 63 45 39 38 31 21 25 33 41 50 55 61 56 39 42 41 25 39 55 63 69 83 86 86 86 73 50 49 44 75 72 88 87 67 62
43 50 63 72 72 70 67 51 42 37 39 61 42 27 18 12 12 14 16 20 35 41 35 28 25 45 54 60 67 83 86 83 85 78 56 32 23 24 28 69 84 78 77
45 49 72 76 74 67 57 39 37 39 44 64 64 37 22 17 19 16 18 33 33 32 28 26 31 42 51 55 66 82 87 87 64 55 33 25 20 17 15 17 32 56 55
52 59 79 80 75 62 53 41 38 41 46 58 85 43 25 20 20 19 25 30 28 27 26 28 33 39 46 50 58 73 79 80 60 46 36 34 30 24 20 15 12 12 19
57 75 82 83 73 62 54 46 42 40 44 53 79 42 27 22 20 21 22 24 24 24 25 27 30 32 35 40 46 56 55 53 49 49 42 38 36 35 33 26 18 14 11
69 78 82 83 69 86 59 47 44 42 48 58 79 67 38 26 23 23 22 22 23 23 25 27 28 29 31 33 35 41 59 57 57 48 50 42 42 40 39 37 34 24 16
86 82 83 83 71 83 60 48 38 42 50 66 84 76 57 44 30 25 25 24 24 24 25 26 27 28 30 31 34 38 50 54 53 51 54 49 43 42 42 41 42 41 33
93 79 78 80 71 64 60 40 40 43 47 59 78 74 37 36 31 30 26 24 26 25 26 27 27 28 30 31 33 36 44 54 58 61 56 56 46 42 41 41 43 43 45
86 80 81 76 76 72 59 38 41 52 47 53 65 70 49 38 34 32 32 31 28 25 24 25 27 29 30 32 33 34 42 51 57 63 60 54 49 42 41 42 43 42 43
80 78 88 80 82 77 65 41 34 48 50 49 55 64 65 49 46 38 32 31 32 31 30 28 27 26 26 32 34 35 41 44 46 55 55 52 52 48 47 47 51 51 46
82 76 78 80 80 76 72 56 33 35 43 43 37 69 70 66 58 50 29 25 24 24 26 31 34 37 40 36 32 37 41 44 46 48 54 55 58 58 58 58 60 60 60
79 74 87 77 82 91 88 74 73 46 43 58 71 80 81 83 65 44 35 35 33 28 28 34 36 38 44 49 51 51 55 56 59 62 62 63 63 64 67 67 68 69 70
74 74 82 77 79 85 84 86 85 85 74 74 76 81 80 77 57 49 46 44 40 36 33 40 48 56 56 63 64 64 68 67 67 70 70 71 71 71 71 72 76 80 82
72 74 81 82 76 78 85 93 82 79 83 86 86 82 83 75 67 60 56 52 48 39 42 49 57 65 68 70 73 76 72 74 76 78 81 79 82 84 83 86 85 85 88
64 75 78 82 79 80 78 80 81 83 81 84 88 85 75 73 69 62 57 54 58 54 62 66 70 73 75 78 76 80 82 85 87 87 88 92 89 92 95 95 90 84 87
75 76 80 88 81 82 82 79 80 80 83 82 87 82 77 61 63 63 66 65 72 76 77 78 81 81 83 86 88 88 86 85 79 84 91 93 96 96 92 90 97 86 89
64 76 76 88 80 80 82 82 79 81 88 84 85 84 90 82 71 69 69 71 77 83 89 87 86 89 93 91 90 87 86 85 86 87 85 84 93 93 92 79 82 82 93
73 72 76 80 81 81 82 82 82 86 87 84 77 82 88 86 91 87 87 84 90 95 96 97 98 92 91 90 91 91 92 93 88 77 66 66 82 83 79 82 82 88 84
64 67 73 77 81 81 86 81 81 84 84 84 86 95 91 98 97 85 88 89 93 94 97 99 94 98 97 95 95 86 81 85 81 71 63 67 87 86 79 84 78 83 78
66 66 70 80 78 79 79 83 80 77 84 85 83 89 86 91 88 91 95 100 100 98 97 98 97 96 98 96 91 86 82 80 77 66 66 69 76 86 79 80 83 77 85
43 63 66 66 71 72 75 78 91 88 88 81 79 75 81 87 90 81 72 65 64 90 100 98 97 96 95 93 92 94 88 82 83 76 80 85 84 82 79 80 73 73 71
39 38 51 73 66 65 69 72 70 66 63 65 68 67 73 79 76 74 71 65 50 42 39 40 45 53 52 50 54 61 92 100 98 90 83 77 86 85 89 88 84 82 84
39 38 37 34 70 68 65 66 63 62 70 76 81 81 77 67 62 43 35 34 33 33 33 34 36 38 43 44 47 44 51 56 79 94 95 75 83 87 89 94 96 93 75
40 40 38 33 30 61 72 72 61 59 55 60 64 65 66 53 36 32 32 33 33 34 35 38 40 41 44 46 46 48 52 59 82 93 100 88 84 94 100 99 97 94 77
Wind_Speed
21 22 21 19 16 13 11 12 11 13 16 15 19 15 18 20 22 23 23 21 19 17 13 13 12 13 17 21 23 23 24 24 22 21 21 22 20 20 20 20 18 17 16
28 25 22 19 17 15 14 11 13 13 16 16 16 16 16 16 17 17 16 16 15 13 10 13 15 17 20 23 24 25 23 21 21 18 17 17 19 18 19 19 19 17 15
28 27 23 21 18 16 12 11 12 15 18 18 17 18 16 15 14 14 13 13 11 13 15 16 18 20 21 22 23 22 21 20 16 12 16 14 14 15 16 17 16 16 16
31 28 24 22 19 15 13 13 15 18 19 18 17 18 18 16 15 13 14 14 16 17 17 18 19 20 21 21 20 20 19 16 13 11 13 13 12 12 13 12 14 13 13
30 28 26 22 18 15 15 16 17 19 19 18 17 18 18 18 17 17 17 18 18 18 18 18 18 19 19 20 19 18 17 13 10 11 12 13 12 13 12 10 8 7 9
30 28 25 22 18 16 17 18 19 20 19 18 18 17 18 19 19 19 19 19 19 18 18 18 18 18 17 17 15 15 14 9 9 11 13 13 13 14 13 12 10 8 7
28 27 25 21 18 17 18 17 18 20 20 19 18 17 18 18 19 18 18 18 17 17 16 16 16 15 15 14 12 11 10 8 9 9 10 12 12 12 12 12 11 10 9
26 25 24 20 19 19 17 15 16 19 20 20 18 15 16 17 18 17 16 16 15 14 13 13 12 12 11 11 9 8 6 7 7 7 9 11 11 10 10 11 11 10 10
19 23 22 20 20 20 14 13 15 18 19 19 18 14 14 13 15 14 14 13 12 11 10 9 9 8 8 7 6 6 4 5 5 6 7 9 11 10 9 9 10 10 9
18 18 20 19 19 17 13 12 17 18 18 18 18 14 13 12 13 12 12 11 10 9 7 6 5 4 4 4 4 3 2 2 3 5 8 9 10 10 10 9 9 9 9
15 14 20 18 18 15 12 12 17 18 18 18 16 12 10 10 10 9 8 7 6 5 4 3 2 1 1 1 2 2 1 1 3 6 8 9 10 11 10 10 9 9 9
17 16 15 16 17 14 11 11 15 14 17 16 13 12 10 9 7 7 5 4 3 3 3 2 1 2 2 2 1 1 2 3 4 6 7 8 9 10 11 10 10 10 10
17 15 14 11 15 13 10 11 12 13 13 14 12 9 7 6 2 3 2 2 3 3 3 2 2 1 2 4 5 4 4 5 6 7 8 9 10 11 11 11 10 10 11
19 16 18 14 13 13 9 10 9 9 12 12 12 11 7 5 6 5 5 4 2 3 2 3 2 3 4 6 6 6 7 7 6 6 8 10 10 11 11 11 12 12 11
16 19 19 17 17 16 14 11 8 4 7 7 8 9 9 13 10 8 6 4 4 3 4 4 3 5 6 6 7 8 8 8 9 9 11 13 13 13 13 12 12 13 14
20 20 21 19 16 16 16 17 13 11 7 10 11 12 13 11 10 8 7 7 6 5 5 6 5 6 6 7 8 8 10 10 10 11 13 15 18 17 16 15 15 15 15
21 21 22 23 20 19 18 18 16 16 14 13 12 10 13 14 11 9 9 7 6 6 6 6 6 8 9 10 10 9 9 10 13 14 16 17 18 18 19 18 20 18 16
25 22 22 21 21 23 19 18 21 16 15 15 12 11 8 10 10 9 8 7 6 6 6 7 8 9 10 10 10 11 12 13 15 16 19 20 18 17 18 19 19 18 16
21 26 24 23 23 22 22 22 20 19 17 16 12 11 10 5 7 7 7 7 7 8 9 10 10 11 11 12 14 15 17 18 19 21 22 20 18 17 20 17 17 17 19
21 19 19 22 23 23 20 20 21 22 19 15 14 11 11 10 8 7 7 7 9 10 11 12 13 12 14 17 17 20 22 21 20 20 18 17 16 13 12 12 14 16 17
19 18 20 23 23 22 22 22 21 25 21 19 17 18 16 13 11 12 12 11 12 12 13 15 16 17 18 20 22 23 22 22 23 24 20 15 16 14 13 17 13 17 16
18 22 22 25 24 24 23 22 22 21 20 20 20 17 16 15 16 16 18 15 15 17 16 17 18 20 21 19 20 21 25 23 20 8 9 12 13 13 13 14 15 18 15
15 20 24 23 23 24 23 24 26 24 23 19 18 18 20 24 24 21 18 17 18 17 18 20 21 22 23 23 22 22 13 7 11 12 6 6 10 13 14 16 18 17 18
16 16 20 25 26 26 25 26 23 23 21 20 20 20 19 18 18 18 17 18 18 18 19 21 22 23 22 21 20 18 20 21 12 11 10 8 13 14 14 16 16 15 14
22 19 19 18 23 24 24 26 24 23 24 23 22 21 20 18 16 16 17 18 19 20 21 21 21 21 20 19 19 19 20 22 20 20 20 19 15 16 19 15 15 15 20
28 25 23 20 20 23 24 25 25 25 24 23 22 20 18 17 17 17 17 19 20 20 20 19 19 19 19 19 20 20 21 19 16 14 15 17 17 16 19 18 14 17 20
Wind_Direction
176 163 158 154 143 135 124 115 111 102 104 103 104 114 114 108 107 109 109 114 113 107 102 97 84 82 88 91 92 93 91 88 81 71 65 64 67 68 66 66 65 66 70
158 160 158 151 137 128 127 125 121 114 121 105 115 113 120 121 121 118 113 111 113 108 103 97 94 93 96 97 97 94 89 81 75 71 68 60 68 70 67 64 57 62 65
158 157 152 143 139 137 134 127 129 124 124 112 109 107 114 125 131 133 129 118 112 106 105 101 98 98 101 103 100 94 88 81 74 68 69 58 65 66 70 66 58 63 64
155 155 148 146 143 141 135 129 126 126 127 116 106 101 100 106 114 120 124 119 113 111 105 101 102 102 103 107 104 100 94 89 81 52 49 51 57 62 62 71 68 59 61
156 152 147 147 147 141 136 130 128 130 130 121 110 104 100 101 102 107 113 114 112 106 102 99 101 104 104 104 104 98 90 90 87 71 57 57 58 60 59 59 56 50 46
155 152 148 150 149 143 139 133 130 133 134 127 121 111 107 104 105 111 114 112 110 109 105 103 104 106 109 109 104 103 106 99 67 61 59 55 54 54 53 51 47 40 33
153 153 149 155 149 145 144 138 134 138 138 135 128 120 114 109 108 110 112 112 111 109 108 106 105 106 108 112 108 100 99 95 71 57 54 48 46 48 48 47 44 41 37
153 156 154 156 148 146 151 145 143 144 145 143 137 136 120 118 114 113 113 113 112 111 109 106 105 106 106 104 103 101 90 70 34 50 45 34 33 34 37 39 40 38 34
163 161 159 159 155 157 158 150 151 149 150 149 140 154 138 129 122 120 118 116 115 115 114 111 108 106 105 101 98 97 103 64 38 17 21 18 14 13 17 22 24 27 27
170 175 169 162 162 162 159 151 152 153 155 156 156 154 127 136 129 125 123 124 124 122 121 119 115 106 96 93 91 85 94 41 34 350 355 355 354 356 357 360 5 9 14
173 184 175 169 167 166 161 155 158 159 159 162 161 152 130 138 139 137 134 132 132 135 140 146 142 131 117 114 99 79 98 0 341 331 328 333 336 344 345 343 347 352 356
170 168 182 177 173 172 167 159 165 164 158 160 156 154 152 141 138 148 152 159 165 166 174 187 200 242 260 265 272 4 308 324 323 301 314 325 328 334 334 341 342 341 339
168 175 175 179 180 176 172 163 166 172 164 156 149 153 170 164 187 226 243 222 231 234 232 231 228 259 313 324 326 328 320 332 318 292 308 321 326 329 331 333 338 336 333
170 182 176 185 182 188 192 171 143 158 170 167 154 158 193 191 246 254 223 230 241 247 245 239 261 290 319 338 331 320 327 323 317 313 311 319 323 323 324 325 325 324 325
197 185 194 196 197 198 195 188 164 188 190 171 179 184 197 225 226 233 233 247 264 252 274 287 305 316 312 316 313 313 311 311 316 314 316 319 320 321 318 317 314 311 313
197 196 197 201 200 210 204 189 197 202 211 204 211 212 216 218 224 220 223 239 250 261 257 254 266 274 289 289 291 295 303 305 311 312 312 313 312 313 315 316 316 307 300
204 220 204 203 194 208 211 200 198 195 208 219 222 227 224 226 222 224 228 225 234 244 245 254 261 272 280 284 285 288 298 308 312 306 308 304 299 302 306 307 316 312 304
201 215 225 217 205 206 208 209 204 200 208 217 231 241 218 217 220 216 215 228 238 250 265 272 274 277 281 288 301 308 302 295 294 286 288 294 295 293 295 306 300 309 312
209 207 212 208 216 214 210 207 202 206 205 213 231 223 221 218 228 230 229 227 239 256 269 279 282 286 289 289 282 284 285 279 278 279 285 286 283 288 289 292 299 301 308
200 202 204 207 212 217 212 213 205 201 208 213 217 215 225 234 240 246 266 266 255 256 264 273 282 287 280 281 280 278 282 283 282 286 292 293 292 293 289 286 293 296 294
198 200 198 207 202 200 202 206 203 203 206 203 207 212 214 220 223 242 252 257 256 259 263 265 271 271 273 276 284 286 290 293 293 295 293 281 280 269 256 278 292 300 302
208 204 208 211 208 207 205 208 210 209 211 216 220 215 221 226 236 239 246 246 248 251 256 265 267 269 274 280 282 289 293 293 302 303 292 272 265 255 272 275 285 310 310
212 209 213 212 211 214 212 208 211 211 214 215 216 224 232 234 241 246 253 258 263 263 260 262 265 270 271 272 270 272 283 277 282 293 271 249 255 266 273 278 291 300 303
226 219 214 218 215 211 215 218 218 221 219 219 220 224 232 241 247 249 255 263 268 271 271 271 272 272 274 277 277 266 257 261 283 288 278 264 260 269 266 268 281 290 298
227 233 231 225 224 217 218 219 216 219 219 220 223 232 239 244 245 250 257 265 271 274 275 276 274 275 276 275 272 275 269 267 258 260 275 277 269 268 274 271 267 281 298
223 224 223 228 227 224 216 219 219 221 224 225 227 232 239 245 252 260 270 278 279 279 278 277 276 276 275 276 276 273 272 267 261 257 262 264 273 260 266 254 267 284 294